#timestamp,LO_Frequency,Hit,StdDev 
1584968595.2,286046989.2,P
1584968615.0,286046989.1,P
1584968615.9,286046989.1,P
1584968635.8,286046991.2,Y
1584968655.6,286047002.8,P
1584968675.4,286047002.7,N
1584968695.3,286047001.9,N
1584968715.1,286047001.7,N
1584968735.8,286047001.6,N
1584968755.7,286047003.7,N
1584968775.5,286047003.8,N
1584968795.4,286047001.3,N
1584968815.2,286047001.8,N
1584968835.0,286047003.9,N
1584968835.9,286047003.9,N
1584968855.8,286047003.5,N
1584968875.6,286047004.1,N
1584968895.4,286047003.6,N
1584968915.3,286047002.9,N
1584968935.1,286047003.5,N
1584968955.9,286047006.0,N
1584968975.7,286047005.1,N
1584968995.5,286047005.2,N
1584969015.4,286047007.1,N
1584969035.2,286047007.5,N
1584969055.1,286047006.6,N
1584969056.0,286047006.6,N
1584969075.8,286047008.3,N
1584969095.6,286047010.7,Y
1584969115.5,286047006.9,P
1584969135.3,286047007.0,P
1584969155.2,286047006.6,P
1584969175.9,286047008.0,Y
1584969195.7,286047002.1,P
1584969215.6,286047000.0,N
1584969235.4,286047002.4,N
1584969255.2,286047002.2,N
1584969275.1,286047004.4,N
1584969276.0,286047004.4,N
1584969295.8,286047002.5,N
1584969315.7,286047003.5,N
1584969335.5,286047003.4,N
1584969355.3,286047003.9,N
1584969375.2,286047004.0,N
1584969395.0,286047003.2,N
1584969395.9,286047003.2,N
1584969415.8,286047004.4,Y
1584969435.6,286047000.0,P
1584969455.4,286047000.5,N
1584969475.3,286047000.5,N
1584969495.1,286047000.2,N
1584969515.9,286047001.0,N
1584969535.7,286047001.0,N
1584969555.5,286047000.9,N
1584969575.4,286047000.0,N
1584969595.2,286047000.6,N
1584969615.1,286046998.2,N
1584969616.0,286046998.2,N
1584969635.8,286047000.1,N
1584969655.6,286046999.8,N
1584969675.5,286047000.6,N
1584969695.3,286047000.4,N
1584969715.1,286047000.4,N
1584969735.9,286047001.0,N
1584969755.7,286047000.8,N
1584969775.6,286046998.7,N
1584969795.4,286046997.0,N
1584969815.2,286046999.6,N
1584969835.1,286046997.4,N
1584969836.0,286046997.4,N
1584969855.8,286046996.8,N
1584969875.6,286046997.7,N
1584969895.5,286046997.7,N
1584969915.3,286046995.0,Y
1584969935.2,286046997.1,P
1584969955.9,286046997.6,N
1584969975.7,286046994.9,P
1584969995.6,286046995.4,N
1584970015.4,286046998.0,N
1584970035.2,286046997.1,N
1584970055.1,286046997.6,N
1584970056.0,286046997.6,N
1584970075.8,286046995.9,Y
1584970095.7,286046999.4,P
1584970115.5,286046999.6,N
1584970135.3,286046998.1,N
1584970155.2,286046998.2,N
1584970175.0,286047000.8,N
1584970175.9,286047000.8,N
1584970195.8,286046998.4,N
1584970215.6,286046999.1,N
1584970235.4,286046999.1,N
1584970255.3,286047000.8,N
1584970275.1,286046998.2,N
1584970295.8,286046998.2,N
1584970315.7,286047000.7,N
1584970335.5,286047002.1,N
1584970355.4,286047001.5,N
1584970375.2,286047004.4,Y
1584970395.0,286047003.6,P
1584970395.9,286047003.6,N
1584970415.8,286047005.5,N
1584970435.6,286047005.3,N
1584970455.4,286047005.3,N
1584970475.3,286047005.0,N
1584970495.1,286047007.2,Y
1584970515.9,286047004.0,P
1584970535.7,286047005.2,P
1584970555.5,286047004.9,P
1584970575.4,286047007.4,Y
1584970595.2,286047001.3,P
1584970615.1,286047003.9,N
1584970616.0,286047003.9,N
1584970635.8,286047002.9,N
1584970655.6,286047003.4,N
1584970675.5,286047005.8,Y
1584970695.3,286047003.2,P
1584970715.2,286047003.2,P
1584970735.9,286047003.7,P
1584970755.7,286047003.0,Y
1584970775.6,286047000.3,P
1584970795.4,286047002.4,N
1584970815.3,286047002.8,N
1584970835.1,286047001.6,N
1584970836.0,286047001.6,N
1584970855.8,286047002.2,N
1584970875.7,286047001.9,N
1584970895.5,286047001.9,N
1584970915.4,286047001.7,N
1584970935.2,286047001.9,N
1584970955.0,286047001.4,N
1584970955.9,286047001.4,N
1584970975.8,286047003.6,Y
1584970995.6,286047004.1,P
1584971015.5,286047005.9,P
1584971035.3,286047005.7,P
1584971055.1,286047005.0,Y
1584971075.9,286047000.4,P
1584971095.7,286047000.7,N
1584971115.5,286047000.3,N
1584971135.4,286047000.4,N
1584971155.2,286047000.0,N
1584971175.1,286047002.8,N
1584971176.0,286047002.8,N
1584971195.8,286046999.7,N
1584971215.6,286047002.7,N
1584971235.5,286047002.7,N
1584971255.3,286047000.9,N
1584971275.2,286046999.9,N
1584971295.9,286047002.7,N
1584971315